カタログに戻る

STARLINK-30856

運用中通信VLEO
NORAD 58725·PAYLOAD·🇺🇸 United States

打ち上げ Jan 3, 2024 から Vandenberg Space Force Base

Loading…

次のパス (今後24時間)

TLE

最新Source: CelesTrak SupGP

元期: Sep 15, 2026, 02:55 UTC

1 58725C 24002W   26258.12201389 -.00026796  00000+0 -81335-3 0  2586
2 58725  53.1576  68.7950 0001222  89.7285 347.9715 15.33552140    13

AllMySatでSTARLINK-30856をリアルタイム追跡

Download on the App Store